Location: Karlovy Vary
(50.2170°N, 12.9000°E)
Time: 18:52:04
(UTC+02:00)

ISS - Visible Passes

Search period start: 18 April 2026 00:00
Search period end: 28 April 2026 00:00
Orbit: 416 x 425 km, 51.6° (Epoch: 18 April)

Date Brightness Start Highest point End Pass type
(mag) Time Alt. Az. Time Alt. Az. Time Alt. Az.
18 Apr -1.1 05:27:38 10° SSE 05:29:13 13° SE 05:30:48 10° ESE visible
20 Apr -2.1 05:28:11 10° SSW 05:31:06 27° SE 05:34:01 10° E visible
21 Apr -1.7 04:41:45 11° S 04:43:57 19° SE 04:46:25 10° E visible
22 Apr -1.3 03:56:15 12° SSE 03:56:51 13° SE 03:58:28 10° ESE visible
23 Apr -2.9 04:43:40 17° SSW 04:45:50 39° SSE 04:49:01 10° E visible
24 Apr -2.5 03:58:02 26° SSE 03:58:37 27° SE 04:01:32 10° E visible
25 Apr -1.5 03:12:22 17° ESE 03:12:22 17° ESE 03:13:54 10° E visible
25 Apr -3.7 04:45:19 17° WSW 04:47:50 73° SSE 04:51:12 10° ENE visible
26 Apr -3.5 03:59:35 39° SSW 04:00:29 55° SSE 04:03:48 10° ENE visible
27 Apr -2.7 03:13:48 35° ESE 03:13:48 35° ESE 03:16:22 10° E visible
27 Apr -3.6 04:46:46 12° W 04:49:53 76° N 04:53:17 10° ENE visible
